Погода в Бресте

Поиск расширенной информации на нашем сайте:

Полезная информация:

Новости сайта



02.01.2020
Опубликован Долгосрочный прогноз погоды по городам России и ближнего зарубежья на январь 2020 года.
Карты: Прогноз на январь и февраль 2020 года, Сравнение прогнозируемой аномалии приземной температуры воздуха на январь 2020 года по разным моделям.




Погода в Бресте - сегодня

Время (UTC), дата Ветер
(°,м/с) 
Видим.   Явления Облачность Т
(°С)
Тd
(°С)
f(%) Тe
(°С)
Pmin
(гПа)
dP
(гПа)
Po
(мм)
O2
(г/м3)
Тmin Tmax R s Состояние
почвы
06 04.06.20 330 (СЗ) 20000 м  {ливн. осадки}  9/9 360 м кучево-дожд. 
[Cb calv]
+10.8 +9.4 91 +13  1002.4  -0.1  739  285  +8.8    0.0     
09 04.06.20 250 (З) 20000 м    8/8 900 м кучево-дожд. 
[Cb calv]
+14.5 +8.7 68 +15  1002  -0.2  739  281           
12 04.06.20 290 (З) 30000 м  в посл. час ливневой дождь  8/5 1000 м кучево-дожд., средняя 
[Cb calv|Ac trans]
+15.8 +9.2 65 +17  1001.6  -0.3  738  280      0.5     
15 04.06.20 320 (СЗ) 30000 м  {ливн. осадки}  8/4 1000 м кучево-дожд., средняя 
[Cb calv|Ac trans]
+16.6 +8.8 60 +17  1001.3  -0.2  738  279         
18 04.06.20 тихо ()   30000 м  {ливн. осадки}  4/3 1000 м средняя 
[Cu med, cong|Ac trans]
+14.8 +8.7 67 +15  1001.3  -0.2  738  281    +18.2     
21 04.06.20 тихо ()   20000 м    ясно 
+9.5 +8.6 94 +10  1001.9  0.3  738  286           
00 05.06.20 140 (ЮВ) 30000 м    ясно 
+10.1 +8.7 91 +11  1001.4  -0.5  738  285           
03 05.06.20 100 (В) 6000 м  дымка  3/0 верхняя 
[Ci fib]
+8.1 +8 99 +9  1000.5  -1  737  287           
06 05.06.20 100 (В) 30000 м    8/0 средняя 
[Ac trans]
+14.2 +12.1 87 +18  999.7  -0.4  737  280  +8         
09 05.06.20 190 (Ю) 30000 м    9/9 600 м кучево-дожд. 
[Cb calv]
+19 +13.8 72 +27  999.5  0.1  737  275           
12 05.06.20 190 (Ю) 30000 м    8/8 1000 м 
[Cu hum]
+22.5 +14.1 59 +30  998.8  -0.4  737  271           
15 05.06.20 190 (Ю) 30000 м    8/5 1000 м средняя 
[Cu hum|Ac trans]
+24.1 +13.3 51 +30  998.1  -0.6  736  270           
18 05.06.20 200 (Ю) 4{11}  30000 м    9/0 средняя 
[Ac trans]
+21.8 +12.1 54 +26  999.3  737  273    +24.6       
21 05.06.20 200 (Ю) 4{11}  30000 м    8/8 1470 м 
[Sc]
+19.5 +12.7 65 +25  1001.2  1.7  738  275           
00 06.06.20 210 (ЮЗ) 20000 м  в посл. час ливневой дождь  9/9 500 м 
[Sc]
+15.3 +15 98 +26  1002.7  1.2  739  279         
03 06.06.20 230 (ЮЗ) 15000 м    8/8 300 м 
[Sc]
+15.3 +15 98 +25  1004.1  1.4  740  279         
06 06.06.20 220 (ЮЗ) 30000 м    1/0 средняя 
[Ac trans]
+17.4 +13.1 76 +24  1006  742  278  +15.2       
09 06.06.20 220 (ЮЗ) 30000 м    3/3 1410 м 
[Sc diur, vesp]
+21.2 +11.8 55 +25  1007  1.3  743  275           
12 06.06.20 210 (ЮЗ) 4{11}  30000 м    3/3 2000 м 
[Cu med, cong]
+23.9 +10.6 43 +26  1008.1  1.2  744  274           
15 06.06.20 190 (Ю) 30000 м    3/3 2000 м 
[Cu med, cong]
+25 +9.3 37 +25  1007.9  -0.1  744  273           
18 06.06.20 190 (Ю) 30000 м    1/0 средняя 
[Ac trans]
+23.9 +10.2 42 +25  1008.8  0.8  744  274    +25.7       
21 06.06.20 140 (ЮВ) 30000 м    3/0 средняя 
[Ac trans]
+19.5 +10.5 56 +23  1009.6  0.5  745  278           
00 07.06.20 тихо ()   30000 м    8/0 средняя, верхняя 
[Ac trans|Ci fib]
+16.8 +12.9 78 +22  1010.3  0.5  745  280           
03 07.06.20 тихо ()   30000 м    9/0 средняя 
[Ac trans]
+15.5 +14 91 +23  1010.5  0.1  745  281           
06 07.06.20 110 (В) 30000 м    8/0 средняя 
[Ac trans]
+21.2 +17.2 78 +34  1009.8  -0.3  745  275  +15.1         
Время (UTC), дата Ветер
(°,м/с) 
Видим.   Явления Облачность Т
(°С)
Тd
(°С)
f(%) Тe
(°С)
Pmin
(гПа)
dP
(гПа)
Po
(мм)
O2
(г/м3)
Тmin Tmax R s Состояние
почвы

Для получения пояснительной информации подведите курсор к названию столбца.

ПОГОДА в Бресте - архив

Всё, что Вы хотите узнать о погоде в Бресте - удобно и подробно!

Выберите нужную дату (начиная с 1 января 2019* года) и нажмите кнопку "Найти".
Будут отображены архивные сводки погоды по пункту Брест, начиная с указанной даты.


Отображать данные в формате CSV (для использования в таблицах Excel)


Внимание! Наш архив погоды предназначен исключительно для личного некоммерческого использования в познавательных целях. Если Вам необходимы официальные справки о состоянии погоды (для производственных, юридических, коммерческих и т.п. целей), обращайтесь в органы Росгидромета.

*Примечание: данная дата относится к архиву по метеостанциям СССР (Россия, СНГ, Балтия).
Архив по метеостанциям Зарубежной Европы и Азии (кроме Китая) хранится 10 дней, по другим регионам земного шара (Китай, Африка, Америка, Австралия, Океания) - 1 день.

Брест - район местоположения метеостанции


Название, широта, долгота, высота метеостанции:
Брест 52.1°ш. 23.7°д. 146 м над ур. моря [Беларусь]

Дополнительная информация

В oтличие oт бoльшинства пoгoдных сайтoв мы публикуем пoдрoбную метеoинфoрмацию в детальнoм прoфессиoнальнoм фoрмате.

Характеристики температуры и влажнoсти вoздуха измеряются на высoте 2 м в тени вдали oт зданий и деревьев.
Скoрoсть ветра измеряется на высoте 10 м (на урoвне рoста челoвека скoрoсть ветра ниже в 1.5-2 раза). Если метеoстанция нахoдится в гoрoде или в лесу, тo скoрoсть ветра занижена на 2-4 м/с пo сравнению с oткрытым местoм. Скoрoсть ветра над акватoриями крупных рек и oзёр, а также на вершинах хoлмoв на 2-5 м/с выше, чем в oбычных услoвиях.
Атмoсфернoе давление в разных тoчках местнoсти мoжет значительнo oтличаться oт давления на метеoстанции, в зависимoсти oт услoвий рельефа (при пoдъёме на 10 м давление пoнижается примернo на 1 мм рт.ст.).